Weather reports worldwide

Advertisment
Cagliari/Elmas, Italy (16560): temperature & dewpoint: 20.03.2019 20:00:00 - 26.03.2019 20:00:00 (CET)Cagliari/Elmas, Italy (16560): wind speed: 20.03.2019 20:00:00 - 26.03.2019 20:00:00 (CET)Cagliari/Elmas, Italy (16560): wind direction: 20.03.2019 20:00:00 - 26.03.2019 20:00:00 (CET)Cagliari/Elmas, Italy (16560): reduced air pressure: 20.03.2019 20:00:00 - 26.03.2019 20:00:00 (CET)Cagliari/Elmas, Italy (16560): visibility: 20.03.2019 20:00:00 - 26.03.2019 20:00:00 (CET)Cagliari/Elmas, Italy (16560): precipitation: 20.03.2019 20:00:00 - 26.03.2019 20:00:00 (CET)
Date & Time tt [°C] td [°C] ff [km/h] ff [kn] dd ppp [hPa] vv [km] rr [mm]
26.03.2019 20:00:00 12,0 6,0 22 12 WNW - 10 -
26.03.2019 19:00:00 12,2 5,6 24 13 WNW 1012,1 10 -
26.03.2019 18:00:00 14,0 7,0 26 14 NW - 10 -
26.03.2019 17:00:00 16,0 7,0 26 14 W - 10 -
26.03.2019 16:00:00 16,4 7,0 26 14 W 1010,0 10 0,0
26.03.2019 15:00:00 17,0 7,0 22 12 W - 10 -
26.03.2019 14:00:00 16,0 8,0 11 6 W - 10 -
26.03.2019 13:00:00 16,5 8,6 13 7 NW 1010,1 10 -
26.03.2019 12:00:00 16,0 8,0 15 8 W - 10 -
26.03.2019 11:00:00 14,0 7,0 22 12 W - 10 -
26.03.2019 10:00:00 14,5 4,8 21 11 WNW 1011,3 10 0,0
26.03.2019 09:00:00 13,0 4,0 24 13 WNW - 10 -
26.03.2019 08:00:00 12,0 4,0 22 12 WNW - 10 -
26.03.2019 07:00:00 10,8 4,7 13 7 NNW 1011,6 10 -
26.03.2019 06:00:00 11,0 5,0 16 9 NW - 10 -
26.03.2019 05:00:00 11,0 6,0 15 8 NW - 10 -
26.03.2019 04:00:00 10,6 7,5 13 7 NW 1011,7 10 0,0
26.03.2019 03:00:00 - - - - - - - -
26.03.2019 02:00:00 10,0 7,0 16 9 NNW - 10 -
26.03.2019 01:00:00 10,9 6,9 18 10 NNW 1013,6 10 -
26.03.2019 00:00:00 12,0 7,0 16 9 NW - 10 -
25.03.2019 23:00:00 12,0 8,0 16 9 NW - 10 -
25.03.2019 22:00:00 12,4 8,5 15 8 NW 1014,3 10 0,0
25.03.2019 21:00:00 13,0 9,0 11 6 NNW - 10 -
25.03.2019 20:00:00 14,0 9,0 21 11 NW - 10 -
25.03.2019 19:00:00 15,4 8,1 22 12 NNW 1013,9 10 -
25.03.2019 18:00:00 18,0 8,0 21 11 NW - 10 -
25.03.2019 17:00:00 20,0 2,0 22 12 WNW - 10 -
25.03.2019 16:00:00 20,4 2,0 21 11 WNW 1014,3 10 0,0
25.03.2019 15:00:00 21,0 2,0 22 12 WNW - 10 -
25.03.2019 14:00:00 21,0 3,0 22 12 WNW - 10 -
25.03.2019 13:00:00 20,6 3,5 22 12 NW 1017,0 10 -
25.03.2019 12:00:00 19,0 7,0 16 9 NNW - 10 -
25.03.2019 11:00:00 18,0 5,0 18 10 NNW - 10 -
25.03.2019 10:00:00 16,4 5,1 22 12 NNW 1018,9 10 0,0
25.03.2019 09:00:00 12,0 8,0 18 10 NNW - 10 -
25.03.2019 08:00:00 8,0 6,0 15 8 NW - 10 -
25.03.2019 07:00:00 5,9 5,1 13 7 NW 1019,6 10 -
25.03.2019 06:00:00 6,0 5,0 13 7 NW - 10 -
25.03.2019 05:00:00 7,0 6,0 13 7 NNW - 9 -
25.03.2019 04:00:00 7,6 7,2 13 7 NNW 1020,1 6 0,0
25.03.2019 03:00:00 9,0 7,0 13 7 NW - 10 -
25.03.2019 02:00:00 9,0 8,0 15 8 NW - 10 -
25.03.2019 01:00:00 9,8 8,4 13 7 NW 1021,3 10 -
25.03.2019 00:00:00 11,0 9,0 13 7 NW - 10 -
24.03.2019 23:00:00 12,0 8,0 18 10 N - 10 -
24.03.2019 22:00:00 12,0 7,8 16 9 NNW 1021,9 10 0,0
24.03.2019 21:00:00 13,0 9,0 16 9 NNW - 10 -
24.03.2019 20:00:00 15,0 7,0 18 10 NNW - 10 -
24.03.2019 19:00:00 15,6 11,6 9 5 NE 1021,4 10 -
24.03.2019 18:00:00 18,0 12,0 11 6 ESE - 10 -
24.03.2019 17:00:00 19,0 12,0 13 7 ESE - 10 -
24.03.2019 16:00:00 20,0 9,7 13 7 SSE 1021,2 10 0,0
24.03.2019 15:00:00 20,0 7,0 11 6 S - 10 -
24.03.2019 14:00:00 20,0 8,0 13 7 S - 10 -
24.03.2019 13:00:00 18,9 9,4 16 9 S 1023,1 10 -
24.03.2019 12:00:00 20,0 6,0 9 5 W - 10 -
24.03.2019 11:00:00 18,0 8,0 5 3 - - 10 -
24.03.2019 10:00:00 16,2 9,3 11 6 NW 1024,3 10 0,0
24.03.2019 09:00:00 12,0 8,0 15 8 NW - 10 -
24.03.2019 08:00:00 9,0 6,0 15 8 NNW - 10 -
24.03.2019 07:00:00 6,4 4,9 15 8 NNW 1023,6 9 -
24.03.2019 06:00:00 6,0 5,0 13 7 NNW - 10 -
24.03.2019 05:00:00 8,0 7,0 13 7 NW - 10 -
24.03.2019 04:00:00 7,1 5,7 11 6 NW 1023,0 10 0,0
24.03.2019 03:00:00 9,0 7,0 13 7 NW - 10 -
24.03.2019 02:00:00 8,0 7,0 11 6 NNW - 10 -
24.03.2019 01:00:00 8,5 6,9 9 5 NNW 1023,3 10 -
24.03.2019 00:00:00 10,0 9,0 9 5 NNW - 10 -
23.03.2019 23:00:00 10,0 8,0 9 5 NNW - 10 -
23.03.2019 22:00:00 11,5 9,0 4 2 NW 1023,5 10 0,0
23.03.2019 21:00:00 13,0 9,0 5 3 NE - 10 -
23.03.2019 20:00:00 14,0 9,0 9 5 ENE - 10 -
23.03.2019 19:00:00 15,4 7,0 13 7 ESE 1022,5 10 -
23.03.2019 18:00:00 16,0 10,0 15 8 ESE - 10 -
23.03.2019 17:00:00 17,0 9,0 21 11 SSE - 10 -
23.03.2019 16:00:00 17,7 9,2 18 10 SSE 1021,6 10 0,0
23.03.2019 15:00:00 18,0 9,0 18 10 SSE - 10 -
23.03.2019 14:00:00 20,0 6,0 18 10 S - 10 -
23.03.2019 13:00:00 21,6 6,0 9 5 SSW 1022,3 10 -
23.03.2019 12:00:00 20,0 6,0 9 5 WNW - 10 -
23.03.2019 11:00:00 18,0 7,0 11 6 WNW - 10 -
23.03.2019 10:00:00 15,8 7,2 9 5 WNW 1023,7 10 0,0
23.03.2019 09:00:00 12,0 7,0 13 7 NW - 10 -
23.03.2019 08:00:00 10,0 7,0 9 5 NNW - 10 -
23.03.2019 07:00:00 8,6 6,6 13 7 NW 1023,3 10 -
23.03.2019 06:00:00 7,0 6,0 9 5 NNW - 10 -
23.03.2019 05:00:00 7,0 6,0 9 5 NNW - 10 -
23.03.2019 04:00:00 8,6 7,0 9 5 NW 1022,8 - 0,0
23.03.2019 03:00:00 10,0 7,0 9 5 NNW - 10 -
23.03.2019 02:00:00 11,0 8,0 11 6 NW - 10 -
23.03.2019 01:00:00 10,8 8,0 9 5 WNW 1023,3 10 -
23.03.2019 00:00:00 12,0 8,0 11 6 NW - 10 -
22.03.2019 23:00:00 12,0 8,0 8 4 NW - 10 -
22.03.2019 22:00:00 12,0 8,2 9 5 NNW 1023,7 10 0,0
22.03.2019 21:00:00 14,0 9,0 5 3 NNE - 10 -
22.03.2019 20:00:00 15,0 9,0 9 5 E - 10 -
22.03.2019 19:00:00 15,5 9,1 16 9 E 1023,6 10 -
22.03.2019 18:00:00 16,0 9,0 21 11 E - 10 -
22.03.2019 17:00:00 17,0 9,0 18 10 E - 10 -
22.03.2019 16:00:00 17,4 8,7 21 11 E 1022,5 10 0,0
22.03.2019 15:00:00 17,0 10,0 22 12 E - 10 -
22.03.2019 14:00:00 17,0 10,0 21 11 E - 10 -
22.03.2019 13:00:00 17,1 9,4 24 13 E 1023,3 10 -
22.03.2019 12:00:00 17,0 10,0 18 10 E - 10 -
22.03.2019 11:00:00 15,0 10,0 18 10 E - 10 -
22.03.2019 10:00:00 15,3 10,4 18 10 E 1023,4 10 0,0
22.03.2019 09:00:00 15,0 11,0 16 9 E - 10 -
22.03.2019 08:00:00 14,0 9,0 13 7 NE - 10 -
22.03.2019 07:00:00 13,5 9,9 16 9 E 1021,9 10 -
22.03.2019 06:00:00 15,0 10,0 11 6 ESE - 10 -
22.03.2019 05:00:00 15,0 9,0 13 7 ENE - 10 -
22.03.2019 04:00:00 15,6 8,7 13 7 NE 1020,8 - 0,0
22.03.2019 03:00:00 - - - - - - - -
22.03.2019 02:00:00 16,0 9,0 8 4 NE - 10 -
22.03.2019 01:00:00 15,5 9,0 21 11 ENE 1021,7 10 -
22.03.2019 00:00:00 16,0 8,0 29 16 ENE - 10 -
21.03.2019 23:00:00 16,0 8,0 31 17 E - 10 -
21.03.2019 22:00:00 15,7 7,1 26 14 ENE 1021,2 10 0,0
21.03.2019 21:00:00 15,0 6,0 15 8 NE - 10 -
21.03.2019 20:00:00 16,0 6,0 8 4 NE - 10 -
21.03.2019 19:00:00 15,8 5,5 18 10 E 1020,1 10 -
21.03.2019 18:00:00 16,0 6,0 22 12 E - 10 -
21.03.2019 17:00:00 16,0 6,0 13 7 E - 10 -
21.03.2019 16:00:00 16,9 6,4 9 5 NNE 1019,7 10 0,0
21.03.2019 15:00:00 18,0 6,0 16 9 NW - 10 -
21.03.2019 14:00:00 16,0 8,0 24 13 E - 10 -
21.03.2019 13:00:00 15,0 9,1 21 11 ENE 1021,0 10 -
21.03.2019 12:00:00 16,0 6,0 22 12 ENE - 10 -
21.03.2019 11:00:00 15,0 6,0 24 13 E - 10 -
21.03.2019 10:00:00 15,1 7,1 9 5 NW 1021,6 10 0,0
21.03.2019 09:00:00 14,0 8,0 8 4 - - 10 -
21.03.2019 08:00:00 13,0 8,0 9 5 ENE - 10 -
21.03.2019 07:00:00 13,0 6,7 9 5 NNE 1020,4 10 -
21.03.2019 06:00:00 12,0 9,0 15 8 WSW - 10 -
21.03.2019 05:00:00 12,0 9,0 18 10 W - 10 -
21.03.2019 04:00:00 11,7 8,4 9 5 WNW 1019,6 10 0,0
21.03.2019 03:00:00 12,0 8,0 16 9 ENE - 10 -
21.03.2019 02:00:00 14,0 6,0 22 12 E - 10 -
21.03.2019 01:00:00 13,3 6,8 5 3 NNW 1021,1 10 -
21.03.2019 00:00:00 14,0 8,0 11 6 ENE - 10 -
20.03.2019 23:00:00 13,0 8,0 4 2 - - 10 -
20.03.2019 22:00:00 13,0 8,0 4 2 - - 10 -
20.03.2019 21:00:00 14,0 7,0 16 9 NNE - 10 -
20.03.2019 20:00:00 14,0 7,0 11 6 NNE - 10 -

tt = temperature
td = dewpoint
ff = wind speed
dd = wind direction
ppp = reduced air pressure
vv = visibility
rr = precipitation

Next stations